Phoenix Deer Valley, AZ

5:41 AM MST on May 22, 2018 (GMT -0700)
Phoenix-Deer Valley Municipal

Weather History for KDVT - August, 2014

Change the Weather History Date:

Wednesday, August 27, 2014

  Actual Average Record
Temperature  
Mean Temperature 90 °F -  
Max Temperature 99 °F 98 °F 109 °F (2005)
Min Temperature 80 °F 79 °F 73 °F (2003)
Cooling Degree Days 24    
Growing Degree Days 40 (Base 50)    
Moisture  
Dew Point 59 °F    
Average Humidity 37    
Maximum Humidity 50    
Minimum Humidity 24    
Precipitation  
Precipitation 0.00 in - - ()
Sea Level Pressure  
Sea Level Pressure 29.90 in    
Wind  
Wind Speed 4 mph (ENE)    
Max Wind Speed 14 mph    
Max Gust Speed -    
Visibility 10 miles    
Events      
Averages and records for this station are not official NWS values.
T = Trace of Precipitation, MM = Missing Value Source: NWS Daily Summary

Daily Weather History Graph

Daily Weather History Graph

Search for Another Location

Airport or City:

Astronomy

Aug. 27, 2014 Rise Set
Actual Time 5:58 AM MST 7:00 PM MST
Civil Twilight 5:33 AM MST 7:25 PM MST
Nautical Twilight 5:02 AM MST 7:56 PM MST
Astronomical Twilight 4:31 AM MST 8:27 PM MST
Moon 7:50 AM MST (8/27) 8:03 PM MST (8/27)
Length of Visible Light 13h 52m
Length of Day
13h 01m
Waxing Crescent, 4% of the Moon is Illuminated
Aug 27
Waxing Crescent
Sep 2
First Quarter
Sep 8
Full
Sep 15
Last Quarter
Sep 23
New

Hourly Weather History & Observations

Time (MST) Temp. Heat Index Dew Point Humidity Pressure Visibility Wind Dir Wind Speed Gust Speed Precip Events Conditions
12:53 AM 84.0 °F 84.5 °F 62.1 °F 47% 29.90 in 10.0 mi Calm Calm - N/A   Clear
1:53 AM 82.9 °F 83.3 °F 61.0 °F 47% 29.89 in 10.0 mi ENE 4.6 mph - N/A   Clear
2:53 AM 82.0 °F 82.1 °F 59.0 °F 45% 29.89 in 10.0 mi ENE 5.8 mph - N/A   Clear
3:53 AM 81.0 °F 81.3 °F 59.0 °F 47% 29.91 in 10.0 mi NNE 3.5 mph - N/A   Mostly Cloudy
4:53 AM 81.0 °F 81.3 °F 59.0 °F 47% 29.92 in 10.0 mi ENE 5.8 mph - N/A   Mostly Cloudy
5:53 AM 80.1 °F 80.9 °F 60.1 °F 50% 29.93 in 10.0 mi NE 4.6 mph - N/A   Partly Cloudy
6:53 AM 81.0 °F 81.6 °F 60.1 °F 49% 29.96 in 10.0 mi NNE 3.5 mph - N/A   Mostly Cloudy
7:53 AM 84.0 °F 84.0 °F 60.1 °F 44% 29.97 in 10.0 mi ENE 8.1 mph - N/A   Clear
8:53 AM 87.1 °F 86.7 °F 60.1 °F 40% 29.97 in 10.0 mi East 3.5 mph - N/A   Clear
9:53 AM 89.1 °F 89.0 °F 61.0 °F 39% 29.98 in 10.0 mi Calm Calm - N/A   Clear
10:53 AM 90.0 °F 90.0 °F 61.0 °F 38% 29.97 in 10.0 mi ESE 4.6 mph - N/A   Clear
12:53 PM 93.9 °F 92.9 °F 57.9 °F 30% 29.93 in 10.0 mi Variable 3.5 mph - N/A   Clear
1:53 PM 95.0 °F 94.0 °F 57.9 °F 29% 29.90 in 10.0 mi Variable 3.5 mph - N/A   Clear
2:53 PM 97.0 °F 95.7 °F 57.0 °F 26% 29.87 in 10.0 mi SSW 11.5 mph - N/A   Partly Cloudy
3:53 PM 98.1 °F 96.4 °F 55.9 °F 24% 29.85 in 10.0 mi West 12.7 mph - N/A   Clear
4:53 PM 99.0 °F 97.7 °F 55.9 °F 24% 29.83 in 10.0 mi West 13.8 mph - N/A   Partly Cloudy
5:53 PM 97.0 °F 95.7 °F 57.0 °F 26% 29.83 in 10.0 mi SW 8.1 mph - N/A   Partly Cloudy
6:53 PM 95.0 °F 93.7 °F 57.0 °F 28% 29.84 in 10.0 mi WSW 4.6 mph - N/A   Clear
7:53 PM 93.9 °F 92.2 °F 55.9 °F 28% 29.85 in 10.0 mi NW 3.5 mph - N/A   Clear
8:53 PM 91.9 °F 90.8 °F 57.9 °F 32% 29.86 in 10.0 mi Calm Calm - N/A   Clear
9:53 PM 90.0 °F 89.1 °F 59.0 °F 35% 29.86 in 10.0 mi East 4.6 mph - N/A   Clear
10:53 PM 88.0 °F 87.1 °F 59.0 °F 37% 29.87 in 10.0 mi East 3.5 mph - N/A   Clear
11:53 PM 86.0 °F 85.0 °F 57.9 °F 38% 29.87 in 10.0 mi East 4.6 mph - N/A   Clear